| time (UTC) | temp C | wind direction | speed KPH | gust KPH | rain 1hr cm | rain 24hr cm | rain mn cm | humidity % | barometer mb |
| 20260506060203 | 17 | 36 | 9.7 | 12.9 | 0.00 | 0.00 | 0.00 | 57 | 1013.6 |
| 20260506050204 | 18 | 11 | 8.0 | 11.3 | 0.00 | 0.00 | 0.00 | 52 | 1014.6 |
| 20260506044704 | 18 | 300 | 9.7 | 12.9 | 0.00 | 0.00 | 0.00 | 53 | 1015.3 |
| 20260506043204 | 18 | 293 | 9.7 | 12.9 | 0.00 | 0.00 | 0.00 | 53 | 1015.3 |
| 20260506041704 | 17 | 10 | 9.7 | 14.5 | 0.00 | 0.00 | 0.00 | 56 | 1015.6 |
| 20260506040203 | 17 | 9 | 11.3 | 16.1 | 0.00 | 0.00 | 0.00 | 58 | 1015.9 |
| 20260506034703 | 17 | 190 | 6.4 | 9.7 | 0.00 | 0.00 | 0.00 | 58 | 1015.9 |
| 20260506033204 | 18 | 315 | 9.7 | 11.3 | 0.00 | 0.00 | 0.00 | 55 | 1016.3 |
| 20260506031704 | 17 | 9 | 6.4 | 9.7 | 0.00 | 0.00 | 0.00 | 59 | 1016.6 |
| 20260506030203 | 17 | 312 | 4.8 | 4.8 | 0.00 | 0.00 | 0.00 | 58 | 1016.6 |
| 20260506024704 | 17 | 358 | 9.7 | 12.9 | 0.00 | 0.00 | 0.00 | 56 | 1017.0 |
| 20260506023204 | 18 | 342 | 9.7 | 12.9 | 0.00 | 0.00 | 0.00 | 54 | 1017.3 |
| 20260506021703 | 17 | 333 | 4.8 | 4.8 | 0.00 | 0.00 | 0.00 | 58 | 1018.0 |
| 20260506020204 | 16 | 319 | 4.8 | 6.4 | 0.00 | 0.00 | 0.00 | 58 | 1018.0 |
| 20260506014704 | 16 | 346 | 3.2 | 4.8 | 0.00 | 0.00 | 0.00 | 60 | 1018.3 |
| 20260506013204 | 15 | 310 | 6.4 | 9.7 | 0.00 | 0.00 | 0.00 | 60 | 1018.7 |
| 20260506011703 | 15 | 343 | 9.7 | 14.5 | 0.00 | 0.00 | 0.00 | 61 | 1018.7 |
| 20260506010203 | 15 | 299 | 6.4 | 6.4 | 0.00 | 0.00 | 0.00 | 61 | 1019.0 |
| 20260506004704 | 15 | 342 | 9.7 | 12.9 | 0.00 | 0.00 | 0.00 | 60 | 1019.0 |
| 20260506003205 | 15 | 319 | 8.0 | 12.9 | 0.00 | 0.00 | 0.00 | 61 | 1019.3 |
| 20260506001704 | 15 | 338 | 3.2 | 3.2 | 0.00 | 0.00 | 0.00 | 62 | 1019.3 |
| 20260506000204 | 15 | 281 | 4.8 | 4.8 | 0.00 | 0.00 | 0.00 | 62 | 1019.7 |
| 20260505234703 | 15 | 353 | 3.2 | 4.8 | 0.00 | 0.00 | 0.00 | 64 | 1019.7 |
| 20260505233203 | 15 | 346 | 6.4 | 6.4 | 0.00 | 0.00 | 0.00 | 64 | 1019.7 |
| 20260505231703 | 15 | 334 | 4.8 | 6.4 | 0.00 | 0.00 | 0.00 | 64 | 1019.7 |
| 20260505230204 | 15 | 3 | 3.2 | 3.2 | 0.00 | 0.00 | 0.00 | 65 | 1019.7 |
| 20260505224703 | 14 | 22 | 6.4 | 6.4 | 0.00 | 0.00 | 0.00 | 66 | 1020.0 |
| 20260505223204 | 14 | 348 | 3.2 | 4.8 | 0.00 | 0.00 | 0.00 | 65 | 1019.7 |
| 20260505221704 | 14 | 339 | 3.2 | 4.8 | 0.00 | 0.00 | 0.00 | 66 | 1020.0 |
| 20260505220203 | 13 | 316 | 1.6 | 3.2 | 0.00 | 0.00 | 0.00 | 68 | 1019.7 |
| 20260505214703 | 13 | 330 | 1.6 | 3.2 | 0.00 | 0.00 | 0.00 | 69 | 1020.0 |
| 20260505213203 | 13 | 335 | 1.6 | 1.6 | 0.00 | 0.00 | 0.00 | 69 | 1020.0 |
| 20260505211704 | 13 | 355 | 3.2 | 3.2 | 0.00 | 0.00 | 0.00 | 70 | 1019.7 |
| 20260505210204 | 13 | 353 | 3.2 | 4.8 | 0.00 | 0.00 | 0.00 | 70 | 1020.0 |
| 20260505204704 | 13 | 340 | 6.4 | 6.4 | 0.00 | 0.00 | 0.00 | 70 | 1020.0 |
| 20260505203204 | 13 | 293 | 3.2 | 3.2 | 0.00 | 0.00 | 0.00 | 70 | 1019.7 |
| 20260505201704 | 13 | 345 | 3.2 | 3.2 | 0.00 | 0.00 | 0.00 | 70 | 1020.0 |
| 20260505200204 | 13 | 344 | 1.6 | 3.2 | 0.00 | 0.00 | 0.00 | 70 | 1020.0 |
| 20260505194704 | 13 | 351 | 3.2 | 4.8 | 0.00 | 0.00 | 0.00 | 71 | 1020.0 |
| 20260505193203 | 13 | 337 | 1.6 | 1.6 | 0.00 | 0.00 | 0.00 | 72 | 1020.0 |
| 20260505191703 | 13 | 353 | 1.6 | 1.6 | 0.00 | 0.00 | 0.00 | 72 | 1020.0 |
| 20260505190204 | 13 | 345 | 3.2 | 3.2 | 0.00 | 0.00 | 0.00 | 73 | 1020.4 |
| 20260505184703 | 13 | 344 | 1.6 | 1.6 | 0.00 | 0.00 | 0.00 | 73 | 1020.4 |
| 20260505183203 | 13 | 338 | 1.6 | 1.6 | 0.00 | 0.00 | 0.00 | 73 | 1020.4 |
| 20260505181705 | 13 | 306 | 1.6 | 3.2 | 0.00 | 0.00 | 0.00 | 73 | 1020.4 |
| 20260505180204 | 13 | 10 | 3.2 | 3.2 | 0.00 | 0.00 | 0.00 | 74 | 1020.4 |
| 20260505174704 | 13 | 353 | 1.6 | 3.2 | 0.00 | 0.00 | 0.00 | 75 | 1020.4 |
| 20260505173203 | 13 | 325 | 3.2 | 4.8 | 0.00 | 0.00 | 0.00 | 76 | 1020.4 |
| 20260505171703 | 13 | 336 | 1.6 | 3.2 | 0.00 | 0.00 | 0.00 | 76 | 1020.4 |
| 20260505170203 | 13 | 305 | 1.6 | 1.6 | 0.00 | 0.00 | 0.00 | 75 | 1020.4 |
| 20260505164703 | 13 | 336 | 1.6 | 1.6 | 0.00 | 0.00 | 0.00 | 76 | 1020.4 |
| 20260505163203 | 13 | 338 | 0.0 | 0.0 | 0.00 | 0.00 | 0.00 | 77 | 1020.7 |
| 20260505161703 | 13 | 337 | 0.0 | 0.0 | 0.00 | 0.00 | 0.00 | 77 | 1020.7 |
| 20260505160203 | 13 | 345 | 0.0 | 1.6 | 0.00 | 0.00 | 0.00 | 77 | 1021.0 |
| 20260505153204 | 13 | 343 | 0.0 | 1.6 | 0.00 | 0.00 | 0.00 | 77 | 1021.4 |
| 20260505151704 | 13 | 351 | 0.0 | 0.0 | 0.00 | 0.00 | 0.00 | 78 | 1021.4 |
| 20260505150204 | 13 | 339 | 0.0 | 0.0 | 0.00 | 0.00 | 0.00 | 79 | 1021.7 |
| 20260505140204 | 13 | 333 | 0.0 | 0.0 | 0.00 | 0.00 | 0.00 | 80 | 1021.4 |
| 20260505130204 | 12 | 332 | 0.0 | 0.0 | 0.00 | 0.00 | 0.00 | 79 | 1021.7 |
| 20260505124704 | 12 | 331 | 0.0 | 0.0 | 0.00 | 0.00 | 0.00 | 76 | 1021.7 |
| 20260505123204 | 13 | 331 | 0.0 | 0.0 | 0.00 | 0.00 | 0.00 | 74 | 1022.0 |
| 20260505121704 | 13 | 339 | 0.0 | 0.0 | 0.00 | 0.00 | 0.00 | 73 | 1022.0 |
| 20260505120204 | 14 | 336 | 0.0 | 1.6 | 0.00 | 0.00 | 0.00 | 72 | 1022.4 |
| 20260505114704 | 14 | 335 | 0.0 | 1.6 | 0.00 | 0.00 | 0.00 | 71 | 1022.0 |
| 20260505113203 | 14 | 332 | 1.6 | 1.6 | 0.00 | 0.00 | 0.00 | 70 | 1022.0 |
| 20260505111704 | 14 | 326 | 0.0 | 0.0 | 0.00 | 0.00 | 0.00 | 70 | 1022.0 |
| 20260505110204 | 14 | 338 | 1.6 | 1.6 | 0.00 | 0.00 | 0.00 | 68 | 1022.0 |
| 20260505101704 | 14 | 335 | 0.0 | 1.6 | 0.00 | 0.00 | 0.00 | 72 | 1021.7 |
| 20260505100204 | 14 | 319 | 0.0 | 1.6 | 0.00 | 0.00 | 0.00 | 73 | 1022.0 |
| 20260505094704 | 14 | 336 | 0.0 | 0.0 | 0.00 | 0.00 | 0.00 | 72 | 1021.7 |
| 20260505093203 | 14 | 338 | 0.0 | 0.0 | 0.00 | 0.00 | 0.00 | 71 | 1022.0 |
| 20260505091704 | 15 | 352 | 1.6 | 1.6 | 0.00 | 0.00 | 0.00 | 71 | 1022.0 |
| 20260505090204 | 15 | 316 | 1.6 | 1.6 | 0.00 | 0.00 | 0.00 | 71 | 1021.7 |
| 20260505084704 | 15 | 329 | 0.0 | 0.0 | 0.00 | 0.00 | 0.00 | 71 | 1021.7 |
| 20260505083204 | 15 | 344 | 1.6 | 3.2 | 0.00 | 0.00 | 0.00 | 71 | 1021.7 |
| 20260505081704 | 15 | 329 | 0.0 | 0.0 | 0.00 | 0.00 | 0.00 | 72 | 1021.4 |
| 20260505080203 | 15 | 311 | 3.2 | 3.2 | 0.00 | 0.00 | 0.00 | 72 | 1021.4 |
| 20260505074703 | 15 | 324 | 1.6 | 1.6 | 0.00 | 0.00 | 0.00 | 71 | 1021.4 |
| 20260505073203 | 15 | 288 | 4.8 | 4.8 | 0.00 | 0.00 | 0.00 | 71 | 1021.0 |
| 20260505071704 | 15 | 331 | 3.2 | 3.2 | 0.00 | 0.00 | 0.00 | 70 | 1021.0 |
| 20260505070204 | 15 | 273 | 6.4 | 9.7 | 0.00 | 0.00 | 0.00 | 68 | 1021.0 |
| 20260505064704 | 15 | 261 | 1.6 | 3.2 | 0.00 | 0.00 | 0.00 | 67 | 1020.7 |
| 20260505063203 | 15 | 295 | 3.2 | 4.8 | 0.00 | 0.00 | 0.00 | 65 | 1020.7 |
| 20260505061703 | 16 | 298 | 4.8 | 6.4 | 0.00 | 0.00 | 0.00 | 63 | 1020.7 |